Time,TemperatureF,DewpointF,PressureIn,WindDirection,WindDirectionDegrees,WindSpeedMPH,WindSpeedGustMPH,Humidity,HourlyPrecipIn,Conditions,Clouds,dailyrainin,SoftwareType,DateUTC
2013-04-10 00:03:00,71.6,68.2,29.61,South,172,13.0,15.0,89,0.00,,,0.00,Wunderground v.1.15,2013-04-10 05:03:00,
2013-04-10 00:08:00,71.6,68.2,29.61,SSE,147,14.0,15.0,89,0.00,,,0.00,Wunderground v.1.15,2013-04-10 05:08:00,
2013-04-10 00:14:00,71.6,68.2,29.61,SSE,149,13.0,17.0,89,0.00,,,0.00,Wunderground v.1.15,2013-04-10 05:14:00,
2013-04-10 00:20:00,71.6,67.9,29.61,South,187,14.0,14.0,88,0.00,,,0.00,Wunderground v.1.15,2013-04-10 05:20:00,
2013-04-10 00:25:00,71.6,67.9,29.60,SSE,162,15.0,22.0,88,0.00,,,0.00,Wunderground v.1.15,2013-04-10 05:25:00,
2013-04-10 00:30:00,71.6,67.9,29.60,SSE,162,15.0,15.0,88,0.00,,,0.00,Wunderground v.1.15,2013-04-10 05:30:00,
2013-04-10 00:35:00,71.6,67.9,29.60,SSW,193,15.0,22.0,88,0.00,,,0.00,Wunderground v.1.15,2013-04-10 05:35:00,
2013-04-10 00:40:00,71.7,67.6,29.60,SSE,149,17.0,17.0,87,0.00,,,0.00,Wunderground v.1.15,2013-04-10 05:40:00,
2013-04-10 00:45:00,71.8,67.7,29.60,SSE,149,17.0,18.0,87,0.00,,,0.00,Wunderground v.1.15,2013-04-10 05:45:00,
2013-04-10 00:52:00,71.8,67.7,29.60,SSE,165,16.0,20.0,87,0.00,,,0.00,Wunderground v.1.15,2013-04-10 05:52:00,
2013-04-10 00:57:00,71.8,67.7,29.60,SSE,167,17.0,26.0,87,0.00,,,0.00,Wunderground v.1.15,2013-04-10 05:57:00,
2013-04-10 01:03:00,71.8,67.7,29.60,South,176,17.0,20.0,87,0.00,,,0.00,Wunderground v.1.15,2013-04-10 06:03:00,
2013-04-10 01:08:00,71.8,67.7,29.60,SSE,153,17.0,23.0,87,0.00,,,0.00,Wunderground v.1.15,2013-04-10 06:08:00,
2013-04-10 01:14:00,71.8,67.7,29.60,SSE,166,18.0,21.0,87,0.00,,,0.00,Wunderground v.1.15,2013-04-10 06:14:00,
2013-04-10 01:20:00,71.8,67.7,29.60,SSE,156,17.0,17.0,87,0.00,,,0.00,Wunderground v.1.15,2013-04-10 06:20:00,
2013-04-10 01:26:00,71.8,67.7,29.60,South,177,17.0,20.0,87,0.00,,,0.00,Wunderground v.1.15,2013-04-10 06:26:00,
2013-04-10 01:32:00,71.8,67.7,29.60,SSW,212,18.0,22.0,87,0.00,,,0.00,Wunderground v.1.15,2013-04-10 06:32:00,
2013-04-10 01:37:00,71.8,67.7,29.60,SSE,150,18.0,22.0,87,0.00,,,0.00,Wunderground v.1.15,2013-04-10 06:37:00,
2013-04-10 01:43:00,71.8,67.7,29.60,SSE,149,17.0,20.0,87,0.00,,,0.00,Wunderground v.1.15,2013-04-10 06:43:00,
2013-04-10 01:49:00,71.8,67.7,29.60,South,169,18.0,22.0,87,0.00,,,0.00,Wunderground v.1.15,2013-04-10 06:49:00,
2013-04-10 01:55:00,71.8,67.4,29.60,SSE,149,17.0,20.0,86,0.00,,,0.00,Wunderground v.1.15,2013-04-10 06:55:00,
2013-04-10 02:02:00,71.8,67.4,29.60,SSE,158,17.0,20.0,86,0.00,,,0.00,Wunderground v.1.15,2013-04-10 07:02:00,
2013-04-10 02:08:00,71.8,67.4,29.59,South,172,18.0,27.0,86,0.00,,,0.00,Wunderground v.1.15,2013-04-10 07:08:00,
2013-04-10 02:14:00,71.8,67.4,29.60,SSE,155,18.0,28.0,86,0.00,,,0.00,Wunderground v.1.15,2013-04-10 07:14:00,
2013-04-10 02:20:00,71.9,67.5,29.59,SSE,159,18.0,18.0,86,0.00,,,0.00,Wunderground v.1.15,2013-04-10 07:20:00,
2013-04-10 02:25:00,71.8,67.4,29.59,SSE,152,19.0,26.0,86,0.00,,,0.00,Wunderground v.1.15,2013-04-10 07:25:00,
2013-04-10 02:31:00,71.8,67.4,29.59,SSE,165,19.0,24.0,86,0.00,,,0.00,Wunderground v.1.15,2013-04-10 07:31:00,
2013-04-10 02:37:00,71.8,67.4,29.60,SSE,159,18.0,24.0,86,0.00,,,0.00,Wunderground v.1.15,2013-04-10 07:37:00,
2013-04-10 02:43:00,71.8,67.0,29.60,SSE,152,18.0,28.0,85,0.00,,,0.00,Wunderground v.1.15,2013-04-10 07:43:00,
2013-04-10 02:49:00,71.7,66.9,29.59,SSE,159,18.0,28.0,85,0.00,,,0.00,Wunderground v.1.15,2013-04-10 07:49:00,
2013-04-10 02:54:00,71.7,66.9,29.60,SSW,212,16.0,27.0,85,0.00,,,0.00,Wunderground v.1.15,2013-04-10 07:54:00,
2013-04-10 02:59:00,71.6,66.8,29.61,South,172,13.0,27.0,85,0.00,,,0.00,Wunderground v.1.15,2013-04-10 07:59:00,
2013-04-10 03:05:00,71.6,67.2,29.62,SW,224,10.0,16.0,86,0.00,,,0.00,Wunderground v.1.15,2013-04-10 08:05:00,
2013-04-10 03:10:00,71.7,67.3,29.63,SW,217,11.0,11.0,86,0.00,,,0.00,Wunderground v.1.15,2013-04-10 08:10:00,
2013-04-10 03:15:00,71.6,67.2,29.64,SW,226,10.0,14.0,86,0.00,,,0.00,Wunderground v.1.15,2013-04-10 08:15:00,
2013-04-10 03:20:00,71.6,67.2,29.64,SW,231,8.0,15.0,86,0.00,,,0.00,Wunderground v.1.15,2013-04-10 08:20:00,
2013-04-10 03:26:00,71.7,66.9,29.63,SW,223,9.0,16.0,85,0.00,,,0.00,Wunderground v.1.15,2013-04-10 08:26:00,
2013-04-10 03:32:00,71.7,66.9,29.63,SSW,200,10.0,14.0,85,0.00,,,0.00,Wunderground v.1.15,2013-04-10 08:32:00,
2013-04-10 03:37:00,71.8,67.0,29.63,SW,235,9.0,14.0,85,0.00,,,0.00,Wunderground v.1.15,2013-04-10 08:37:00,
2013-04-10 03:42:00,71.8,67.0,29.64,SW,224,8.0,14.0,85,0.00,,,0.00,Wunderground v.1.15,2013-04-10 08:42:00,
2013-04-10 03:48:00,71.8,67.0,29.65,WSW,239,6.0,14.0,85,0.00,,,0.00,Wunderground v.1.15,2013-04-10 08:48:00,
2013-04-10 03:53:00,71.9,67.1,29.65,WSW,254,6.0,14.0,85,0.00,,,0.00,Wunderground v.1.15,2013-04-10 08:53:00,
2013-04-10 03:59:00,71.9,66.8,29.65,SW,218,5.0,14.0,84,0.00,,,0.00,Wunderground v.1.15,2013-04-10 08:59:00,
2013-04-10 04:05:00,71.9,66.8,29.65,SW,226,6.0,14.0,84,0.00,,,0.00,Wunderground v.1.15,2013-04-10 09:05:00,
2013-04-10 04:11:00,71.9,67.1,29.65,South,179,7.0,14.0,85,0.00,,,0.00,Wunderground v.1.15,2013-04-10 09:11:00,
2013-04-10 04:17:00,71.9,66.8,29.66,WSW,252,7.0,14.0,84,0.00,,,0.00,Wunderground v.1.15,2013-04-10 09:17:00,
2013-04-10 04:23:00,72.0,66.9,29.67,WSW,256,8.0,14.0,84,0.00,,,0.00,Wunderground v.1.15,2013-04-10 09:23:00,
2013-04-10 04:29:00,72.0,66.9,29.67,WSW,250,6.0,14.0,84,0.00,,,0.00,Wunderground v.1.15,2013-04-10 09:29:00,
2013-04-10 04:34:00,71.9,66.8,29.67,SW,226,5.0,14.0,84,0.00,,,0.00,Wunderground v.1.15,2013-04-10 09:34:00,
2013-04-10 04:40:00,71.8,66.7,29.68,West,280,6.0,6.0,84,0.00,,,0.00,Wunderground v.1.15,2013-04-10 09:40:00,
2013-04-10 04:45:00,68.8,64.1,29.69,NW,326,6.0,17.0,85,0.00,,,0.00,Wunderground v.1.15,2013-04-10 09:45:00,
2013-04-10 04:51:00,56.9,49.8,29.70,NW,320,13.0,16.0,77,0.00,,,0.00,Wunderground v.1.15,2013-04-10 09:51:00,
2013-04-10 04:57:00,51.8,46.5,29.71,NW,311,15.0,21.0,82,0.00,,,0.00,Wunderground v.1.15,2013-04-10 09:57:00,
2013-04-10 05:03:00,49.0,45.0,29.72,NW,317,17.0,18.0,86,0.00,,,0.01,Wunderground v.1.15,2013-04-10 10:03:00,
2013-04-10 05:08:00,47.7,44.3,29.72,NNW,342,16.0,18.0,88,0.00,,,0.01,Wunderground v.1.15,2013-04-10 10:08:00,
2013-04-10 05:14:00,47.0,43.9,29.73,NW,323,14.0,15.0,89,0.00,,,0.01,Wunderground v.1.15,2013-04-10 10:14:00,
2013-04-10 05:19:00,46.4,43.0,29.73,NNW,334,14.0,21.0,88,0.00,,,0.01,Wunderground v.1.15,2013-04-10 10:19:00,
2013-04-10 05:25:00,45.7,42.9,29.73,North,352,16.0,20.0,90,0.00,,,0.01,Wunderground v.1.15,2013-04-10 10:25:00,
2013-04-10 05:31:00,44.8,42.0,29.73,NNE,19,15.0,19.0,90,0.00,,,0.01,Wunderground v.1.15,2013-04-10 10:31:00,
2013-04-10 05:36:00,44.3,41.8,29.74,North,3,16.0,21.0,91,0.00,,,0.01,Wunderground v.1.15,2013-04-10 10:36:00,
2013-04-10 05:42:00,43.9,41.7,29.74,NNE,14,17.0,17.0,92,0.00,,,0.01,Wunderground v.1.15,2013-04-10 10:42:00,
2013-04-10 05:47:00,43.8,41.6,29.74,North,354,15.0,17.0,92,0.00,,,0.01,Wunderground v.1.15,2013-04-10 10:47:00,
2013-04-10 05:52:00,43.7,41.2,29.74,North,9,13.0,20.0,91,0.00,,,0.01,Wunderground v.1.15,2013-04-10 10:52:00,
2013-04-10 05:58:00,43.6,41.1,29.74,NNE,15,14.0,23.0,91,0.00,,,0.01,Wunderground v.1.15,2013-04-10 10:58:00,
2013-04-10 06:03:00,43.5,41.0,29.75,North,355,13.0,14.0,91,0.00,,,0.01,Wunderground v.1.15,2013-04-10 11:03:00,
2013-04-10 06:09:00,43.1,40.7,29.74,North,349,12.0,19.0,91,0.00,,,0.01,Wunderground v.1.15,2013-04-10 11:09:00,
2013-04-10 06:15:00,42.9,40.7,29.75,NNW,347,14.0,17.0,92,0.00,,,0.01,Wunderground v.1.15,2013-04-10 11:15:00,
2013-04-10 06:21:00,42.8,40.6,29.75,NNW,347,11.0,14.0,92,0.00,,,0.01,Wunderground v.1.15,2013-04-10 11:21:00,
2013-04-10 06:27:00,42.5,40.3,29.76,North,353,12.0,18.0,92,0.00,,,0.01,Wunderground v.1.15,2013-04-10 11:27:00,
2013-04-10 06:32:00,42.5,40.6,29.76,NNE,16,12.0,19.0,93,0.00,,,0.01,Wunderground v.1.15,2013-04-10 11:32:00,
2013-04-10 06:38:00,42.2,40.0,29.77,North,4,13.0,19.0,92,0.00,,,0.01,Wunderground v.1.15,2013-04-10 11:38:00,
2013-04-10 06:43:00,42.1,39.9,29.77,NNW,337,13.0,15.0,92,0.00,,,0.01,Wunderground v.1.15,2013-04-10 11:43:00,
2013-04-10 06:49:00,42.0,40.1,29.77,NNW,330,14.0,15.0,93,0.00,,,0.01,Wunderground v.1.15,2013-04-10 11:49:00,
2013-04-10 06:54:00,41.9,40.0,29.78,North,5,13.0,14.0,93,0.00,,,0.01,Wunderground v.1.15,2013-04-10 11:54:00,
2013-04-10 06:59:00,41.8,39.9,29.77,NNE,32,14.0,20.0,93,0.00,,,0.01,Wunderground v.1.15,2013-04-10 11:59:00,
2013-04-10 07:05:00,41.8,39.6,29.77,NNW,342,14.0,19.0,92,0.00,,,0.01,Wunderground v.1.15,2013-04-10 12:05:00,
2013-04-10 07:11:00,41.7,39.5,29.78,NNE,15,15.0,20.0,92,0.00,,,0.01,Wunderground v.1.15,2013-04-10 12:11:00,
2013-04-10 07:16:00,41.7,39.5,29.77,North,359,15.0,20.0,92,0.00,,,0.01,Wunderground v.1.15,2013-04-10 12:16:00,
2013-04-10 07:22:00,41.7,39.5,29.78,North,350,14.0,15.0,92,0.00,,,0.01,Wunderground v.1.15,2013-04-10 12:22:00,
2013-04-10 07:28:00,41.9,39.7,29.78,North,11,11.0,15.0,92,0.00,,,0.01,Wunderground v.1.15,2013-04-10 12:28:00,
2013-04-10 07:34:00,41.9,39.7,29.78,NNW,333,12.0,16.0,92,0.00,,,0.01,Wunderground v.1.15,2013-04-10 12:34:00,
2013-04-10 07:40:00,42.0,39.8,29.79,North,350,13.0,18.0,92,0.00,,,0.01,Wunderground v.1.15,2013-04-10 12:40:00,
2013-04-10 07:45:00,42.0,39.8,29.79,NNW,345,13.0,18.0,92,0.00,,,0.01,Wunderground v.1.15,2013-04-10 12:45:00,
2013-04-10 07:50:00,42.0,39.8,29.80,NNE,23,13.0,14.0,92,0.00,,,0.01,Wunderground v.1.15,2013-04-10 12:50:00,
2013-04-10 07:56:00,42.2,40.0,29.80,North,349,13.0,19.0,92,0.00,,,0.01,Wunderground v.1.15,2013-04-10 12:56:00,
2013-04-10 08:01:00,42.1,39.9,29.81,North,6,13.0,20.0,92,0.00,,,0.01,Wunderground v.1.15,2013-04-10 13:01:00,
2013-04-10 08:07:00,41.9,39.7,29.81,NNE,15,14.0,20.0,92,0.00,,,0.01,Wunderground v.1.15,2013-04-10 13:07:00,
2013-04-10 08:13:00,42.0,40.1,29.80,NNE,30,13.0,14.0,93,0.00,,,0.01,Wunderground v.1.15,2013-04-10 13:13:00,
2013-04-10 08:19:00,41.9,40.0,29.81,NNW,345,13.0,17.0,93,0.00,,,0.01,Wunderground v.1.15,2013-04-10 13:19:00,
2013-04-10 08:24:00,41.7,40.1,29.81,NNW,338,14.0,17.0,94,0.00,,,0.01,Wunderground v.1.15,2013-04-10 13:24:00,
2013-04-10 08:30:00,41.6,40.0,29.82,NNW,348,14.0,14.0,94,0.00,,,0.01,Wunderground v.1.15,2013-04-10 13:30:00,
2013-04-10 08:36:00,41.4,39.8,29.82,NNW,342,13.0,15.0,94,0.00,,,0.01,Wunderground v.1.15,2013-04-10 13:36:00,
2013-04-10 08:41:00,40.9,39.3,29.83,North,349,13.0,17.0,94,0.00,,,0.01,Wunderground v.1.15,2013-04-10 13:41:00,
2013-04-10 08:47:00,40.6,39.0,29.83,NNW,329,14.0,20.0,94,0.00,,,0.01,Wunderground v.1.15,2013-04-10 13:47:00,
2013-04-10 08:52:00,40.4,38.8,29.83,NNW,345,14.0,23.0,94,0.00,,,0.01,Wunderground v.1.15,2013-04-10 13:52:00,
2013-04-10 08:58:00,40.2,38.9,29.83,NNW,335,14.0,23.0,95,0.00,,,0.01,Wunderground v.1.15,2013-04-10 13:58:00,
2013-04-10 09:04:00,40.0,38.7,29.84,NNE,30,15.0,22.0,95,0.00,,,0.01,Wunderground v.1.15,2013-04-10 14:04:00,
2013-04-10 09:10:00,39.9,38.6,29.84,NNW,333,15.0,15.0,95,0.00,,,0.01,Wunderground v.1.15,2013-04-10 14:10:00,
2013-04-10 09:16:00,39.8,38.5,29.84,NNW,329,15.0,19.0,95,0.00,,,0.01,Wunderground v.1.15,2013-04-10 14:16:00,
2013-04-10 09:22:00,39.8,38.5,29.85,NNW,340,15.0,17.0,95,0.00,,,0.01,Wunderground v.1.15,2013-04-10 14:22:00,
2013-04-10 09:27:00,39.7,38.4,29.85,North,6,14.0,21.0,95,0.00,,,0.01,Wunderground v.1.15,2013-04-10 14:27:00,
2013-04-10 09:33:00,39.8,38.8,29.85,North,356,15.0,18.0,96,0.00,,,0.02,Wunderground v.1.15,2013-04-10 14:33:00,
2013-04-10 09:39:00,39.5,38.2,29.86,NNW,336,16.0,21.0,95,0.11,,,0.03,Wunderground v.1.15,2013-04-10 14:39:00,
2013-04-10 09:45:00,39.5,38.5,29.85,NNE,13,16.0,21.0,96,0.05,,,0.03,Wunderground v.1.15,2013-04-10 14:45:00,
2013-04-10 09:51:00,39.5,38.5,29.86,NW,326,15.0,15.0,96,0.00,,,0.03,Wunderground v.1.15,2013-04-10 14:51:00,
2013-04-10 09:57:00,39.2,38.2,29.87,NNE,22,16.0,17.0,96,0.00,,,0.03,Wunderground v.1.15,2013-04-10 14:57:00,
2013-04-10 10:03:00,39.2,38.4,29.87,NE,49,14.0,15.0,97,0.00,,,0.03,Wunderground v.1.15,2013-04-10 15:03:00,
2013-04-10 10:09:00,39.2,38.4,29.86,North,1,14.0,21.0,97,0.00,,,0.03,Wunderground v.1.15,2013-04-10 15:09:00,
2013-04-10 10:15:00,39.5,38.7,29.86,North,359,15.0,15.0,97,0.00,,,0.03,Wunderground v.1.15,2013-04-10 15:15:00,
2013-04-10 10:21:00,39.5,38.7,29.86,NW,307,15.0,15.0,97,0.00,,,0.03,Wunderground v.1.15,2013-04-10 15:21:00,
2013-04-10 10:27:00,39.7,38.9,29.88,NW,326,14.0,15.0,97,0.00,,,0.03,Wunderground v.1.15,2013-04-10 15:27:00,
2013-04-10 10:33:00,39.6,38.8,29.88,North,4,13.0,15.0,97,0.00,,,0.03,Wunderground v.1.15,2013-04-10 15:33:00,
2013-04-10 10:39:00,39.7,38.9,29.89,NNW,335,12.0,16.0,97,0.00,,,0.03,Wunderground v.1.15,2013-04-10 15:39:00,
2013-04-10 10:44:00,39.7,38.9,29.89,NNW,342,12.0,17.0,97,0.00,,,0.03,Wunderground v.1.15,2013-04-10 15:44:00,
2013-04-10 10:50:00,39.3,38.5,29.88,NNE,14,16.0,16.0,97,0.00,,,0.03,Wunderground v.1.15,2013-04-10 15:50:00,
2013-04-10 10:56:00,39.4,38.6,29.88,North,11,17.0,17.0,97,0.00,,,0.03,Wunderground v.1.15,2013-04-10 15:56:00,
2013-04-10 11:02:00,39.7,38.9,29.89,North,3,15.0,15.0,97,0.00,,,0.03,Wunderground v.1.15,2013-04-10 16:02:00,
2013-04-10 11:08:00,40.1,39.3,29.90,NNE,25,12.0,16.0,97,0.00,,,0.03,Wunderground v.1.15,2013-04-10 16:08:00,
2013-04-10 11:14:00,40.3,39.5,29.91,North,352,12.0,14.0,97,0.00,,,0.03,Wunderground v.1.15,2013-04-10 16:14:00,
2013-04-10 11:19:00,40.7,39.9,29.91,North,9,11.0,17.0,97,0.00,,,0.03,Wunderground v.1.15,2013-04-10 16:19:00,
2013-04-10 11:25:00,40.5,39.7,29.91,NNE,20,13.0,18.0,97,0.00,,,0.03,Wunderground v.1.15,2013-04-10 16:25:00,
2013-04-10 11:30:00,40.5,39.7,29.91,North,3,14.0,14.0,97,0.00,,,0.03,Wunderground v.1.15,2013-04-10 16:30:00,
2013-04-10 11:36:00,40.5,39.7,29.91,NNW,340,12.0,14.0,97,0.00,,,0.03,Wunderground v.1.15,2013-04-10 16:36:00,
2013-04-10 11:41:00,40.7,39.9,29.91,NNW,330,12.0,17.0,97,0.00,,,0.03,Wunderground v.1.15,2013-04-10 16:41:00,
2013-04-10 11:47:00,40.5,39.4,29.91,NNW,342,14.0,20.0,96,0.00,,,0.03,Wunderground v.1.15,2013-04-10 16:47:00,
2013-04-10 11:53:00,40.4,39.4,29.91,North,11,15.0,18.0,96,0.00,,,0.03,Wunderground v.1.15,2013-04-10 16:53:00,
2013-04-10 11:59:00,40.6,39.5,29.92,NNW,345,13.0,18.0,96,0.00,,,0.03,Wunderground v.1.15,2013-04-10 16:59:00,
2013-04-10 12:05:00,40.6,39.5,29.91,North,11,11.0,15.0,96,0.00,,,0.03,Wunderground v.1.15,2013-04-10 17:05:00,
2013-04-10 12:10:00,40.2,38.9,29.91,NNE,19,12.0,14.0,95,0.00,,,0.03,Wunderground v.1.15,2013-04-10 17:10:00,
2013-04-10 12:16:00,40.1,38.8,29.91,North,9,13.0,16.0,95,0.00,,,0.03,Wunderground v.1.15,2013-04-10 17:16:00,
2013-04-10 12:22:00,40.6,39.3,29.91,NNW,348,13.0,15.0,95,0.00,,,0.03,Wunderground v.1.15,2013-04-10 17:22:00,
2013-04-10 12:27:00,40.8,39.2,29.91,North,353,11.0,15.0,94,0.00,,,0.03,Wunderground v.1.15,2013-04-10 17:27:00,
2013-04-10 12:32:00,40.8,38.7,29.91,NE,37,12.0,17.0,92,0.00,,,0.03,Wunderground v.1.15,2013-04-10 17:32:00,
2013-04-10 12:37:00,40.8,38.9,29.91,North,352,14.0,17.0,93,0.00,,,0.03,Wunderground v.1.15,2013-04-10 17:37:00,
2013-04-10 12:43:00,41.2,39.1,29.90,NNW,344,13.0,16.0,92,0.00,,,0.03,Wunderground v.1.15,2013-04-10 17:43:00,
2013-04-10 12:49:00,41.5,39.3,29.91,NW,319,11.0,16.0,92,0.00,,,0.03,Wunderground v.1.15,2013-04-10 17:49:00,
2013-04-10 12:55:00,41.5,39.1,29.91,North,356,11.0,14.0,91,0.00,,,0.03,Wunderground v.1.15,2013-04-10 17:55:00,
2013-04-10 13:01:00,41.7,39.0,29.90,NNW,338,13.0,15.0,90,0.00,,,0.03,Wunderground v.1.15,2013-04-10 18:01:00,
2013-04-10 13:07:00,42.2,39.5,29.90,NNE,13,14.0,15.0,90,0.00,,,0.03,Wunderground v.1.15,2013-04-10 18:07:00,
2013-04-10 13:13:00,42.9,39.9,29.90,North,4,13.0,14.0,89,0.00,,,0.03,Wunderground v.1.15,2013-04-10 18:13:00,
2013-04-10 13:23:00,43.6,40.3,29.89,NNW,332,12.0,14.0,88,0.00,,,0.03,Wunderground v.1.15,2013-04-10 18:23:00,
2013-04-10 13:29:00,44.4,40.5,29.89,NNW,342,12.0,14.0,86,0.00,,,0.03,Wunderground v.1.15,2013-04-10 18:29:00,
2013-04-10 13:34:00,44.9,41.0,29.89,NNW,335,12.0,14.0,86,0.00,,,0.03,Wunderground v.1.15,2013-04-10 18:34:00,
2013-04-10 13:39:00,45.8,41.9,29.89,NNE,21,12.0,14.0,86,0.00,,,0.03,Wunderground v.1.15,2013-04-10 18:39:00,
2013-04-10 13:44:00,46.6,42.3,29.89,North,9,11.0,14.0,85,0.00,,,0.03,Wunderground v.1.15,2013-04-10 18:44:00,
2013-04-10 13:50:00,46.9,42.3,29.88,North,6,12.0,12.0,84,0.00,,,0.03,Wunderground v.1.15,2013-04-10 18:50:00,
2013-04-10 13:56:00,47.1,41.9,29.88,North,8,12.0,16.0,82,0.00,,,0.03,Wunderground v.1.15,2013-04-10 18:56:00,
2013-04-10 14:02:00,47.4,42.2,29.88,North,9,11.0,14.0,82,0.00,,,0.03,Wunderground v.1.15,2013-04-10 19:02:00,
2013-04-10 14:08:00,47.6,42.4,29.88,NNE,21,11.0,14.0,82,0.00,,,0.03,Wunderground v.1.15,2013-04-10 19:08:00,
2013-04-10 14:13:00,48.0,42.8,29.88,North,9,11.0,14.0,82,0.00,,,0.03,Wunderground v.1.15,2013-04-10 19:13:00,
2013-04-10 14:19:00,48.3,42.7,29.88,NE,53,10.0,14.0,81,0.00,,,0.03,Wunderground v.1.15,2013-04-10 19:19:00,
2013-04-10 14:25:00,48.4,42.8,29.88,North,9,11.0,14.0,81,0.00,,,0.03,Wunderground v.1.15,2013-04-10 19:25:00,
2013-04-10 14:31:00,48.9,43.3,29.88,NNE,27,11.0,14.0,81,0.00,,,0.03,Wunderground v.1.15,2013-04-10 19:31:00,
2013-04-10 14:37:00,49.6,43.0,29.88,North,355,10.0,14.0,78,0.00,,,0.03,Wunderground v.1.15,2013-04-10 19:37:00,
2013-04-10 14:42:00,49.5,42.9,29.88,North,4,10.0,16.0,78,0.00,,,0.03,Wunderground v.1.15,2013-04-10 19:42:00,
2013-04-10 14:48:00,49.3,42.7,29.88,NNE,29,11.0,16.0,78,0.00,,,0.03,Wunderground v.1.15,2013-04-10 19:48:00,
2013-04-10 14:53:00,49.3,43.4,29.88,NE,34,11.0,14.0,80,0.00,,,0.03,Wunderground v.1.15,2013-04-10 19:53:00,
2013-04-10 14:59:00,49.5,43.6,29.88,NNE,30,11.0,14.0,80,0.00,,,0.03,Wunderground v.1.15,2013-04-10 19:59:00,
2013-04-10 15:05:00,49.6,43.0,29.88,NNE,15,11.0,16.0,78,0.00,,,0.03,Wunderground v.1.15,2013-04-10 20:05:00,
2013-04-10 15:11:00,49.8,43.5,29.88,North,352,12.0,14.0,79,0.00,,,0.03,Wunderground v.1.15,2013-04-10 20:11:00,
2013-04-10 15:17:00,50.3,44.0,29.88,NNE,22,12.0,14.0,79,0.00,,,0.03,Wunderground v.1.15,2013-04-10 20:17:00,
2013-04-10 15:23:00,50.0,42.7,29.88,NE,47,12.0,18.0,76,0.00,,,0.03,Wunderground v.1.15,2013-04-10 20:23:00,
2013-04-10 15:29:00,49.9,43.0,29.88,North,6,13.0,18.0,77,0.00,,,0.03,Wunderground v.1.15,2013-04-10 20:29:00,
2013-04-10 15:34:00,49.8,42.9,29.87,NNW,344,13.0,17.0,77,0.00,,,0.03,Wunderground v.1.15,2013-04-10 20:34:00,
2013-04-10 15:40:00,49.7,42.8,29.87,North,11,13.0,13.0,77,0.00,,,0.03,Wunderground v.1.15,2013-04-10 20:40:00,
2013-04-10 15:45:00,49.7,43.1,29.87,NNE,27,13.0,16.0,78,0.00,,,0.03,Wunderground v.1.15,2013-04-10 20:45:00,
2013-04-10 15:51:00,49.9,43.3,29.87,North,11,12.0,15.0,78,0.00,,,0.03,Wunderground v.1.15,2013-04-10 20:51:00,
2013-04-10 15:56:00,50.0,43.4,29.87,North,3,12.0,15.0,78,0.00,,,0.03,Wunderground v.1.15,2013-04-10 20:56:00,
2013-04-10 16:02:00,49.9,42.6,29.86,NNW,342,13.0,14.0,76,0.00,,,0.03,Wunderground v.1.15,2013-04-10 21:02:00,
2013-04-10 16:08:00,50.3,43.7,29.86,NNW,332,12.0,15.0,78,0.00,,,0.03,Wunderground v.1.15,2013-04-10 21:08:00,
2013-04-10 16:14:00,50.2,42.6,29.86,North,349,12.0,18.0,75,0.00,,,0.03,Wunderground v.1.15,2013-04-10 21:14:00,
2013-04-10 16:20:00,50.4,43.1,29.86,NNW,343,12.0,12.0,76,0.00,,,0.03,Wunderground v.1.15,2013-04-10 21:20:00,
2013-04-10 16:26:00,50.4,42.4,29.86,NNW,331,12.0,17.0,74,0.00,,,0.03,Wunderground v.1.15,2013-04-10 21:26:00,
2013-04-10 16:32:00,49.7,42.1,29.86,NNE,12,13.0,15.0,75,0.00,,,0.03,Wunderground v.1.15,2013-04-10 21:32:00,
2013-04-10 16:38:00,50.2,43.3,29.86,NNE,33,13.0,15.0,77,0.00,,,0.03,Wunderground v.1.15,2013-04-10 21:38:00,
2013-04-10 16:44:00,51.1,43.4,29.86,NNE,33,11.0,15.0,75,0.00,,,0.03,Wunderground v.1.15,2013-04-10 21:44:00,
2013-04-10 16:50:00,50.3,42.3,29.86,NE,35,13.0,13.0,74,0.00,,,0.03,Wunderground v.1.15,2013-04-10 21:50:00,
2013-04-10 16:55:00,50.4,42.8,29.86,NNE,19,12.0,14.0,75,0.00,,,0.03,Wunderground v.1.15,2013-04-10 21:55:00,
2013-04-10 17:01:00,50.7,42.7,29.85,NE,39,11.0,14.0,74,0.00,,,0.03,Wunderground v.1.15,2013-04-10 22:01:00,
2013-04-10 17:07:00,50.8,42.8,29.85,NNW,347,12.0,17.0,74,0.00,,,0.03,Wunderground v.1.15,2013-04-10 22:07:00,
2013-04-10 17:13:00,51.1,43.4,29.85,NE,56,12.0,14.0,75,0.00,,,0.03,Wunderground v.1.15,2013-04-10 22:13:00,
2013-04-10 17:19:00,51.2,43.2,29.85,NNE,13,11.0,15.0,74,0.00,,,0.03,Wunderground v.1.15,2013-04-10 22:19:00,
2013-04-10 17:25:00,51.8,43.4,29.85,NNE,27,12.0,16.0,73,0.00,,,0.03,Wunderground v.1.15,2013-04-10 22:25:00,
2013-04-10 17:31:00,52.2,43.4,29.85,NNE,24,13.0,17.0,72,0.00,,,0.03,Wunderground v.1.15,2013-04-10 22:31:00,
2013-04-10 17:37:00,52.1,43.3,29.85,North,357,13.0,17.0,72,0.00,,,0.03,Wunderground v.1.15,2013-04-10 22:37:00,
2013-04-10 17:43:00,52.0,43.3,29.85,North,9,12.0,16.0,72,0.00,,,0.03,Wunderground v.1.15,2013-04-10 22:43:00,
2013-04-10 17:48:00,51.9,43.2,29.85,North,9,12.0,16.0,72,0.00,,,0.03,Wunderground v.1.15,2013-04-10 22:48:00,
2013-04-10 17:53:00,52.0,43.3,29.85,NNE,20,12.0,16.0,72,0.00,,,0.03,Wunderground v.1.15,2013-04-10 22:53:00,
2013-04-10 17:59:00,51.8,43.1,29.85,NNE,15,12.0,16.0,72,0.00,,,0.03,Wunderground v.1.15,2013-04-10 22:59:00,
2013-04-10 18:05:00,51.6,42.5,29.85,North,352,12.0,14.0,71,0.00,,,0.03,Wunderground v.1.15,2013-04-10 23:05:00,
2013-04-10 18:11:00,51.8,43.1,29.85,North,1,12.0,14.0,72,0.00,,,0.03,Wunderground v.1.15,2013-04-10 23:11:00,
2013-04-10 18:17:00,51.4,42.7,29.85,NNE,26,12.0,14.0,72,0.00,,,0.03,Wunderground v.1.15,2013-04-10 23:17:00,
2013-04-10 18:23:00,51.2,42.8,29.84,NE,49,11.0,15.0,73,0.00,,,0.03,Wunderground v.1.15,2013-04-10 23:23:00,
2013-04-10 18:29:00,51.0,42.6,29.85,NE,34,12.0,17.0,73,0.00,,,0.03,Wunderground v.1.15,2013-04-10 23:29:00,
2013-04-10 18:35:00,51.1,43.1,29.86,NNE,27,11.0,15.0,74,0.00,,,0.03,Wunderground v.1.15,2013-04-10 23:35:00,
2013-04-10 18:40:00,51.0,42.6,29.87,NNE,29,10.0,14.0,73,0.00,,,0.03,Wunderground v.1.15,2013-04-10 23:40:00,
2013-04-10 18:46:00,50.6,42.6,29.88,NNE,30,11.0,16.0,74,0.00,,,0.03,Wunderground v.1.15,2013-04-10 23:46:00,
2013-04-10 18:52:00,50.4,42.4,29.88,NNE,21,11.0,14.0,74,0.00,,,0.03,Wunderground v.1.15,2013-04-10 23:52:00,
2013-04-10 18:58:00,50.1,41.8,29.89,NNE,15,10.0,14.0,73,0.00,,,0.03,Wunderground v.1.15,2013-04-10 23:58:00,
2013-04-10 19:04:00,49.9,41.9,29.89,North,9,11.0,14.0,74,0.00,,,0.03,Wunderground v.1.15,2013-04-11 00:04:00,
2013-04-10 19:09:00,49.7,41.7,29.89,NNE,20,10.0,14.0,74,0.00,,,0.03,Wunderground v.1.15,2013-04-11 00:09:00,
2013-04-10 19:14:00,49.7,42.1,29.90,North,11,9.0,14.0,75,0.00,,,0.03,Wunderground v.1.15,2013-04-11 00:14:00,
2013-04-10 19:20:00,49.4,41.8,29.89,NNE,29,8.0,14.0,75,0.00,,,0.03,Wunderground v.1.15,2013-04-11 00:20:00,
2013-04-10 19:25:00,49.2,42.0,29.89,North,357,8.0,14.0,76,0.00,,,0.03,Wunderground v.1.15,2013-04-11 00:25:00,
2013-04-10 19:31:00,49.0,41.8,29.89,NNW,347,8.0,14.0,76,0.00,,,0.03,Wunderground v.1.15,2013-04-11 00:31:00,
2013-04-10 19:36:00,48.7,41.8,29.89,NE,34,8.0,14.0,77,0.00,,,0.03,Wunderground v.1.15,2013-04-11 00:36:00,
2013-04-10 19:41:00,48.4,41.5,29.89,NNE,13,8.0,14.0,77,0.00,,,0.03,Wunderground v.1.15,2013-04-11 00:41:00,
2013-04-10 19:47:00,48.0,41.5,29.89,NNE,16,8.0,14.0,78,0.00,,,0.03,Wunderground v.1.15,2013-04-11 00:47:00,
2013-04-10 19:52:00,47.7,41.2,29.89,NE,37,8.0,14.0,78,0.00,,,0.03,Wunderground v.1.15,2013-04-11 00:52:00,
2013-04-10 19:58:00,47.3,41.4,29.89,NNE,32,8.0,14.0,80,0.00,,,0.03,Wunderground v.1.15,2013-04-11 00:58:00,
2013-04-10 20:03:00,47.1,41.2,29.89,North,350,8.0,14.0,80,0.00,,,0.03,Wunderground v.1.15,2013-04-11 01:03:00,
2013-04-10 20:08:00,46.9,41.1,29.89,NE,34,8.0,14.0,80,0.00,,,0.03,Wunderground v.1.15,2013-04-11 01:08:00,
2013-04-10 20:14:00,46.7,41.2,29.89,NE,34,8.0,14.0,81,0.00,,,0.03,Wunderground v.1.15,2013-04-11 01:14:00,
2013-04-10 20:19:00,46.5,41.0,29.89,NNE,32,7.0,14.0,81,0.00,,,0.03,Wunderground v.1.15,2013-04-11 01:19:00,
2013-04-10 20:24:00,46.3,41.1,29.89,NNE,25,7.0,14.0,82,0.00,,,0.03,Wunderground v.1.15,2013-04-11 01:24:00,
2013-04-10 20:30:00,46.1,40.9,29.90,NE,34,7.0,7.0,82,0.00,,,0.03,Wunderground v.1.15,2013-04-11 01:30:00,
2013-04-10 20:35:00,46.0,40.8,29.90,NE,46,7.0,14.0,82,0.00,,,0.03,Wunderground v.1.15,2013-04-11 01:35:00,
2013-04-10 20:41:00,45.8,40.9,29.90,NNE,33,6.0,14.0,83,0.00,,,0.03,Wunderground v.1.15,2013-04-11 01:41:00,
2013-04-10 20:46:00,45.7,40.8,29.90,NNE,31,6.0,14.0,83,0.00,,,0.03,Wunderground v.1.15,2013-04-11 01:46:00,
2013-04-10 20:51:00,45.6,40.7,29.91,North,1,6.0,14.0,83,0.00,,,0.03,Wunderground v.1.15,2013-04-11 01:51:00,
2013-04-10 20:56:00,45.5,40.6,29.90,NNE,29,6.0,14.0,83,0.00,,,0.03,Wunderground v.1.15,2013-04-11 01:56:00,
2013-04-10 21:02:00,45.3,40.7,29.90,NNE,27,7.0,14.0,84,0.00,,,0.03,Wunderground v.1.15,2013-04-11 02:02:00,
2013-04-10 21:08:00,45.2,40.7,29.91,NNE,29,7.0,14.0,84,0.00,,,0.03,Wunderground v.1.15,2013-04-11 02:08:00,
2013-04-10 21:14:00,45.0,40.5,29.91,NNE,25,6.0,14.0,84,0.00,,,0.03,Wunderground v.1.15,2013-04-11 02:14:00,
2013-04-10 21:19:00,44.8,40.6,29.92,NE,46,6.0,14.0,85,0.00,,,0.03,Wunderground v.1.15,2013-04-11 02:19:00,
2013-04-10 21:24:00,44.7,40.5,29.92,NNE,13,6.0,14.0,85,0.00,,,0.03,Wunderground v.1.15,2013-04-11 02:24:00,
2013-04-10 21:30:00,44.6,40.4,29.93,North,11,6.0,6.0,85,0.00,,,0.03,Wunderground v.1.15,2013-04-11 02:30:00,
2013-04-10 21:35:00,44.4,40.2,29.93,NE,36,6.0,14.0,85,0.00,,,0.03,Wunderground v.1.15,2013-04-11 02:35:00,
2013-04-10 21:40:00,44.3,40.1,29.93,NNE,22,6.0,14.0,85,0.00,,,0.03,Wunderground v.1.15,2013-04-11 02:40:00,
2013-04-10 21:45:00,44.1,40.2,29.93,NNW,344,5.0,14.0,86,0.00,,,0.03,Wunderground v.1.15,2013-04-11 02:45:00,
2013-04-10 21:51:00,43.9,40.0,29.94,North,359,5.0,14.0,86,0.00,,,0.03,Wunderground v.1.15,2013-04-11 02:51:00,
2013-04-10 21:57:00,43.7,39.8,29.95,NNE,20,5.0,14.0,86,0.00,,,0.03,Wunderground v.1.15,2013-04-11 02:57:00,
2013-04-10 22:02:00,43.6,40.0,29.94,NNE,19,4.0,14.0,87,0.00,,,0.03,Wunderground v.1.15,2013-04-11 03:02:00,
2013-04-10 22:07:00,43.4,39.8,29.94,NNE,19,5.0,14.0,87,0.00,,,0.03,Wunderground v.1.15,2013-04-11 03:07:00,
2013-04-10 22:12:00,43.3,39.7,29.94,NNE,27,5.0,14.0,87,0.00,,,0.03,Wunderground v.1.15,2013-04-11 03:12:00,
2013-04-10 22:17:00,43.3,39.7,29.94,North,1,6.0,14.0,87,0.00,,,0.03,Wunderground v.1.15,2013-04-11 03:17:00,
2013-04-10 22:23:00,43.3,39.4,29.95,NNE,18,6.0,14.0,86,0.00,,,0.03,Wunderground v.1.15,2013-04-11 03:23:00,
2013-04-10 22:29:00,43.2,39.3,29.96,NNE,23,6.0,14.0,86,0.00,,,0.03,Wunderground v.1.15,2013-04-11 03:29:00,
2013-04-10 22:34:00,43.1,39.2,29.96,NNE,20,6.0,14.0,86,0.00,,,0.03,Wunderground v.1.15,2013-04-11 03:34:00,
2013-04-10 22:40:00,42.9,39.0,29.96,North,356,5.0,14.0,86,0.00,,,0.03,Wunderground v.1.15,2013-04-11 03:40:00,
2013-04-10 22:45:00,42.8,38.9,29.97,North,1,5.0,14.0,86,0.00,,,0.03,Wunderground v.1.15,2013-04-11 03:45:00,
2013-04-10 22:50:00,42.6,38.7,29.96,NNE,21,5.0,5.0,86,0.00,,,0.03,Wunderground v.1.15,2013-04-11 03:50:00,
2013-04-10 22:55:00,42.4,38.8,29.96,North,352,5.0,14.0,87,0.00,,,0.03,Wunderground v.1.15,2013-04-11 03:55:00,
2013-04-10 23:00:00,42.4,38.8,29.96,North,11,6.0,14.0,87,0.00,,,0.03,Wunderground v.1.15,2013-04-11 04:00:00,
2013-04-10 23:01:00,42.4,38.5,29.96,North,354,6.0,14.0,86,0.00,,,0.03,Wunderground v.1.15,2013-04-11 04:01:00,
2013-04-10 23:02:00,42.4,38.5,29.96,North,352,6.0,14.0,86,0.00,,,0.03,Wunderground v.1.15,2013-04-11 04:02:00,
2013-04-10 23:03:00,42.4,38.5,29.96,NNE,26,6.0,14.0,86,0.00,,,0.03,Wunderground v.1.15,2013-04-11 04:03:00,
2013-04-10 23:08:00,42.4,38.5,29.96,NNW,344,7.0,14.0,86,0.00,,,0.03,Wunderground v.1.15,2013-04-11 04:08:00,